www.pogodaiklimat.ru

Погода и климат >> Архив погоды >> Россия >> Иркутская область >> Мамакан


АРХИВ ПОГОДЫ в Мамакане

Время (UTC), дата Ветер
(напр.,м/с)
 
Видим.   Явления Облачность Т
(С)
Тd
(С)
f
(%)
Тe
(С)
Тes
(С)
Комфортность P
(гПа)
Po
(гПа)
Тmin
(С)
Tmax
(С)
R
(мм)
R24
(мм)
S
(см)
21 11.09 штиль 0 н/о слаб. ливневой дождь 10/10 300 м
[Cb cap]
+7.3 +7.3 100 +6 +6 1004.2 974.6
00 12.09 штиль 0 4000 м слаб. ливневой дождь 10/10 300 м
[Cb cap]
+7.5 +7.5 100 +6 +6 1002.5 972.8 +7.1 9
03 12.09 З 1 4000 м слаб. ливневой дождь 10/8 300 м
[Cb cap Cs]
+10.1 +9.5 96 +10 +11 1002.2 972.9
06 12.09 штиль 0 20 км в посл. час ливневой дождь 10/6 600 м
[Cb cap Cs]
+12.1 +10.6 91 +11 +14 1002.5 973.6
09 12.09 штиль 0 50 км 9/8 1000 м
[Cb cap Ac und Ci fib]
+13.2 +10.5 84 +13 +13 1002.7 973.9
12 12.09 З 1 н/о 9/6 1000 м
[Cb cap Ci fib]
+10.3 +9.7 96 +10 +10 1004.8 975.6 +14.6 5
15 12.09 З 1 н/о {ливн. осадки} 8/6 1000 м
[Cb cap Ci fib]
+8.9 +6.3 84 +8 +8 1007.0 977.6
18 12.09 З 1 н/о {ливн. осадки} 8/5 1000 м
[Cb cap Ci fib]
+6.7 +5.1 90 +6 +6 1009.3 979.6
21 12.09 З 2 н/о слаб. ливневой дождь 10/10 1000 м
[Cb cap]
+5.3 +1.8 78 +3 +3 1011.0 981.0
00 13.09 З 1 10 км слаб. ливневой дождь 10/9 1000 м
[Cb cap Ci fib]
+4.7 +1.1 77 +4 +4 1012.7 982.5 -4.0 0.5
03 13.09 З 2 50 км 9/5 1000 м
[Cb cap Ac trans Ci fib]
+7.1 +0.2 61 +5 +7 1012.0 982.2
06 13.09 ЮЗ 3
{11}
50 км 6/4 1000 м
[Cb cap Ac trans Ci fib]
+8.2 -4.9 39 +6 +9 1010.5 980.9
09 13.09 В 1 50 км 4/3 1000 м
[Cb cap Ci fib]
+9.6 -3.3 40 +10 +11 1008.5 979.0
12 13.09 В 1 н/о 9/5 1000 м
[Cb cap Ac lent Ci]
+4.8 +1.5 79 +4 +4 1007.5 977.6 +10.5
15 13.09 З 1 н/о 9/5 1000 м
[Cb cap Ac lent Ci]
+3.2 +0.6 83 +2 +2 1006.9 976.8
18 13.09 штиль 0 н/о {ливн. осадки} 9/8 600 м
[Cb cap Ci fib]
+2.3 +1.3 93 +1 +1 1008.3 978.0
21 13.09 Ю 1 н/о дымка {ливн. осадки} 10/10 300 м
[Cb cap]
+2.3 +1.8 96 0 0 1007.3 977.1
00 14.09 В 1 1000 м слаб. ливневой дождь 10/8 300 м
[Cb cap Cs]
+2.3 +1.5 94 +1 +1 1006.3 976.1 +1.6 2
03 14.09 В 2 4000 м слаб. ливневой дождь 10/10 600 м
[Cb cap]
+3.3 +2.5 94 0 0 1004.5 974.5
06 14.09 В 2 50 км в посл. час ливневой дождь 10/8 600 м
[Cb cap Cs]
+5.1 +3.4 89 +2 +3 1002.3 972.5
09 14.09 В 1 10 км осадки на расстоянии {ливн. осадки} 10/9 600 м
[Cb cap Cs]
+4.5 +2.5 87 +3 +3 1002.4 972.5
12 14.09 З 1 н/о {ливн. осадки} 10/8 1000 м
[Cb cap Cs]
+2.6 +2.1 97 +1 +1 1005.2 975.1 +5.1 4
15 14.09 З 2 н/о слаб. ливневой снег 10/10 1000 м
[Cb cap]
+2.1 -2.2 73 -1 -1 1007.8 977.6
18 14.09 З 1 н/о {ливн. осадки} 10/10 1000 м
[Cb cap]
+1.5 -1.3 82 -0 -0 1009.6 979.2
21 14.09 З 2 н/о {ливн. осадки} 9/8 1000 м
[Cb cap Ci fib]
+1.7 -3.7 67 -1 -1 1010.1 979.7
00 15.09 З 3 50 км {ливн. осадки} 10/10 1000 м
[Cb cap]
+2.0 -4.4 63 -2 -2 1010.0 979.6 +0.1 0.1
03 15.09 З 2 50 км 10/8 1000 м
[Cb cap Cs]
+4.1 -2.7 61 +2 +3 1010.1 980.0
06 15.09 СЗ 3 50 км 10/8 1000 м
[Cb cap Cs]
+5.4 -1.3 62 +2 +3 1010.4 980.4
09 15.09 З 2 20 км слаб. ливневой дождь 10/10 1000 м
[Cb cap]
+4.3 +0.4 76 +2 +2 1011.9 981.7
12 15.09 штиль 0 н/о {ливн. осадки} 10/10 1000 м
[Cb cap]
+3.8 +0.9 81 +3 +3 1012.4 982.2 +5.5 0.1
15 15.09 штиль 0 н/о 10/10 1000 м
[Cb cap]
+2.4 +0.5 87 +1 +1 1012.6 982.2
18 15.09 В 1 н/о 10/8 1000 м
[Cb cap Cs]
+2.2 +1.1 92 0 0 1011.2 980.9
21 15.09 В 1 н/о 10/6 1000 м
[Cb cap Cs]
+2.0 +0.9 92 0 0 1009.9 979.6
00 16.09 В 2 10 км 10/9 600 м
[Cb cap Cs]
+1.9 +1.1 94 -2 -1 1009.7 979.4 +1.5
03 16.09 СВ 1 20 км в посл. час ливневой дождь 10/10 600 м
[Cb cap]
+4.2 +1.4 82 +3 +3 1009.9 979.8
06 16.09 С 1 20 км в посл. час ливневой дождь 10/10 1000 м
[Cb cap]
+5.8 +2.9 82 +5 +5 1010.8 980.8
09 16.09 З 2 50 км в посл. час крупа {ливн. осадки} 9/8 1000 м
[Cb cap Ac lent Ci fib]
+6.3 +1.0 69 +4 +4 1012.9 983.0
12 16.09 З 1 н/о {ливн. осадки} 9/8 1000 м
[Cb cap Ci fib]
+3.8 +1.5 85 +2 +2 1016.3 986.0 +8.2 0.1
15 16.09 штиль 0 н/о {ливн. осадки} 9/4 1000 м
[Cb cap Ci fib]
+0.7 -0.1 94 -1 -1 1019.5 988.7
18 16.09 штиль 0 н/о {ливн. осадки} 9/3 1000 м
[Sc diur, vesp Ac lent Ci fib]
+1.6 +0.2 90 0 0 1020.6 989.9
21 16.09 З 1 н/о 10/5 1000 м
[Cb cap Ac lent]
+3.3 -0.8 74 +2 +2 1021.6 991.0
00 17.09 З 1 50 км 10/8 1000 м
[Cb cap Cs]
+3.5 +0.6 81 +2 +2 1023.2 992.6 +0.5 0.0
03 17.09 З 1 50 км {ливн. осадки} 10/8 600 м
[Cb cap Cs]
+4.8 +1.2 77 +4 +5 1023.9 993.5
06 17.09 З 2 20 км слаб. ливневой дождь 10/10 1000 м
[Cb cap]
+5.9 +0.2 67 +4 +4 1023.4 993.2
09 17.09 З 2 50 км 9/8 1000 м
[Cb cap Ac lent Ci fib]
+6.2 -1.6 57 +4 +4 1023.8 993.5
12 17.09 штиль 0 н/о 9/8 1000 м
[Cb cap Ac lent Ci fib]
+3.7 +0.3 78 +3 +3 1024.3 993.7 +7.8 0.4
15 17.09 штиль 0 н/о 10/10 1000 м
[Cb cap]
+2.1 -0.1 85 +1 +1 1023.8 993.1
18 17.09 ЮВ 1 н/о слаб. ливневой дождь 10/10 300 м
[Cb cap]
+2.3 +1.5 94 +1 +1 1022.7 992.0
21 17.09 В 2 н/о слаб. ливневой дождь 10/10 300 м
[Cb cap]
+1.1 +0.6 96 -3 -3 1022.0 991.2
00 18.09 В 2 2000 м слаб. ливневой снег 10/10 300 м
[Cb cap]
+1.0 +0.7 98 -3 -3 1021.3 990.5 +0.6 5
03 18.09 В 2 2000 м слаб. ливневой дождь 10/10 600 м
[Cb cap]
+1.7 +1.4 98 -2 -2 1019.8 989.1
06 18.09 В 2 2000 м слаб. ливневой дождь 10/10 600 м
[Cb cap]
+2.1 +1.6 96 -1 -1 1017.9 987.4
09 18.09 В 2 2000 м в посл. час ливневой дождь 10/10 600 м
[Cb cap]
+2.8 +2.0 94 -1 -1 1016.1 985.7
12 18.09 В 2 2000 м слаб. ливневой дождь 10/10 600 м
[Cb cap]
+3.0 +2.5 97 -0 -0 1015.0 984.6 +3.0 8
15 18.09 В 2 н/о дымка {ливн. осадки} 10/10 300 м
[Cb cap]
+3.0 +2.5 97 -0 -0 1013.1 982.8

 

Местоположение метеостанции Мамакан (Иркутская область, Россия): широта 57.81 долгота 114.00 высота над уровнем моря 249 м.

В архиве по умолчанию представлена погода в Мамакане за последнюю неделю. Архивные данные за месяц целиком и за предыдущие месяцы, начиная с января 2011 года, Вы можете получить, выбрав интересующий диапазон дат из раскрывающегося списка и нажав кнопку "Ввод!".


*Определитесь, кто Вы:
робот инопланетянин человек

Внимание! Время в таблицах - всемирное. Для получения местного времени необходимо прибавить поправку, которая равна 8 ч.

Смотрите также архив погоды в соседних городах и на ближайших метеорологических станциях:

Погода в Маме (Иркутская область, Россия) (91 км)
Погода в Таксимо (Бурятия, Россия) (166 км)
Погода в Витиме (Якутия, Россия) (202 км)
Погода в Перевозе (Иркутская область, Россия) (215 км)
Погода в Большой Лепринде (Забайкальский край, Россия) (252 км)
Погода в Уаките (Бурятия, Россия) (260 км)
Погода в Чаре (Забайкальский край, Россия) (272 км)
Погода в Удокане (Забайкальский край, Россия) (284 км)
Погода в Баунте (Бурятия, Россия) (288 км)
Погода в Комаке (Якутия, Россия) (304 км)

Пояснения к столбцам:

Ветер - указаны скорость ветра в м/с - средняя за 10 мин, порывы в срок и между сроками (в фигурных скобках) и направление, откуда дует ветер: С - северный, СВ - северо-восточный, В - восточный, ЮВ - юго-восточный, Ю - южный, ЮЗ - юго-западный, З - западный, СЗ - северо-западный.
Видимость - горизонтальная дальность видимости в метрах или километрах. При видимости от 1 до 10 км при отсутствии осадков обычно наблюдается дымка, при ухудшении видимости до 1 км и менее - туман. В сухую погоду видимость может ухудшаться дымом, пылью или мглою.
Явления - указаны атмосферные явления, наблюдавшиеся в срок или в последний час перед сроком; фигурными скобками обозначены явления, наблюдавшиеся между сроками (за 1-3 часа до срока); квадратными скобками обозначены град или гололедные отложения с указанием их диаметра в мм.
Облачность - указаны через наклонную черту общая и нижняя облачность в баллах и высота нижней границы облаков в метрах; квадратными скобками обозначены формы облаков: Ci - перистые, Cs - перисто-слоистые, Cc - перисто-кучевые, Ac - высококучевые, As - высокослоистые, Sc - слоисто-кучевые, Ns - слоисто-дождевые, Cu - кучевые, Cb - кучево-дождевые. Подробнее классификацию облаков см. в Атласе облаков (PDF).
T - Температура воздуха - температура, измеренная на высоте 2 м над землей.
Td - Температура точки росы - температура, при понижении до которой содержащийся в воздухе водяной пар достигнет насыщения.
f - Относительная влажность воздуха - влажноcть воздуха, измеренная на высоте 2 м над землей.
Te - Эффективная температура - температура, которую ощущает одетый по сезону человек в тени. Характеристика душности погоды. При расчете учитывается влияние влажности воздуха и скорости ветра на теплоощущения человека.
Tes - Эффективная температура на солнце - температура, которую ощущает человек, с поправкой на солнечный нагрев. Характеристика знойности погоды. Зависит от высоты солнца над горизонтом, облачности и скорости ветра. Ночью, в пасмурную погоду, а также при ветре 12 м/с и более поправка равна нулю.
P - Атмосферное давление - приведенное к уровню моря атмосферное давление.
Po - Атмосферное давление - измеренное на уровне метеостанции атмосферное давление.
Tmin - Минимальная температура - минимум температуры воздуха на высоте 2 м над землей.
Tmax - Максимальная температура - максимум температуры воздуха на высоте 2 м над землей.
R - Количество осадков - Количество выпавших осадков за период времени, мм. При наведении курсора мыши на число - период времени, за который выпало указанное количество осадков.
R24 - Количество осадков - Количество выпавших осадков за 24 часа, мм.
S - Снежный покров - Высота снежного покрова, см. При наведении курсора мыши на число - состояние снежного покрова и степень покрытия местности в баллах.